[TLELIST] Archives

 

[TLELIST] Current TLEs

November 30th 2023 PDT

HST 1 20580U 90037B 23334.05431826 .00008754 00000-0 44591-3 0 9998 2 20580 28.4682 243.0350 0002681 18.2914 108.2920 15.15040290646887 ISS (ZARYA) 1 25544U 98067A 23334.51085929 .00035707 00000-0 63084-3 0 9990 2 25544 51.6413 224.7392 0001156 357.9062 186.2241 15.49998792427589 CXO 1 25867U 99040B 23337.18489448 .00000577 00000-0 00000+0 0 9992 2 25867 37.8134 175.2086 9031540 280.0963 359.8344 0.37811457 24979 ...Continue Reading

[TLELIST] Current TLEs

November 29th 2023 PDT

HST 1 20580U 90037B 23332.92368883 .00008510 00000-0 43346-3 0 9991 2 20580 28.4687 250.5783 0002667 6.5721 61.1506 15.15020902646453 ISS (ZARYA) 1 25544U 98067A 23333.21264824 .00022361 00000-0 39993-3 0 9993 2 25544 51.6433 231.1653 0000801 351.1642 144.3757 15.49910046427380 CXO 1 25867U 99040B 23331.89508405 .00000465 00000-0 00000-0 0 9996 2 25867 37.7596 175.9185 9034086 279.4962 359.7949 0.37810293 13803 ...Continue Reading

[TLELIST] Current TLEs

November 29th 2023 PDT

HST 1 20580U 90037B 23332.92368883 .00008510 00000-0 43346-3 0 9991 2 20580 28.4687 250.5783 0002667 6.5721 61.1506 15.15020902646453 ISS (ZARYA) 1 25544U 98067A 23333.21264824 .00022361 00000-0 39993-3 0 9993 2 25544 51.6433 231.1653 0000801 351.1642 144.3757 15.49910046427380 CXO 1 25867U 99040B 23331.89508405 .00000465 00000-0 00000-0 0 9996 2 25867 37.7596 175.9185 9034086 279.4962 359.7949 0.37810293 13803 ...Continue Reading

[TLELIST] Current TLEs

November 29th 2023 PDT

HST 1 20580U 90037B 23332.92368883 .00008510 00000-0 43346-3 0 9991 2 20580 28.4687 250.5783 0002667 6.5721 61.1506 15.15020902646453 ISS (ZARYA) 1 25544U 98067A 23333.21264824 .00022361 00000-0 39993-3 0 9993 2 25544 51.6433 231.1653 0000801 351.1642 144.3757 15.49910046427380 CXO 1 25867U 99040B 23331.89508405 .00000465 00000-0 00000-0 0 9996 2 25867 37.7596 175.9185 9034086 279.4962 359.7949 0.37810293 13803 ...Continue Reading

[TLELIST] Current TLEs

November 28th 2023 PDT

HST 1 20580U 90037B 23332.14483993 .00007972 00000-0 40559-3 0 9999 2 20580 28.4690 255.7743 0002623 358.0603 133.3186 15.15006931646593 ISS (ZARYA) 1 25544U 98067A 23332.24724459 .00023123 00000-0 41387-3 0 9997 2 25544 51.6425 235.9473 0000610 226.9335 278.5001 15.49867988427231 CXO 1 25867U 99040B 23331.89508405 .00000465 00000-0 00000-0 0 9996 2 25867 37.7596 175.9185 9034086 279.4962 359.7949 0.37810293 13803 ...Continue Reading

[TLELIST] Current TLEs

November 27th 2023 PDT

HST 1 20580U 90037B 23330.94633067 .00007663 00000-0 38975-3 0 9990 2 20580 28.4695 263.7699 0002636 345.1717 76.5246 15.14984271646152 ISS (ZARYA) 1 25544U 98067A 23331.27976751 .00011842 00000-0 21649-3 0 9997 2 25544 51.6430 240.7391 0001085 183.4325 320.4634 15.49820584427086 CXO 1 25867U 99040B 23331.89508405 .00000465 00000-0 00000-0 0 9996 2 25867 37.7596 175.9185 9034086 279.4962 359.7949 0.37810293 13803 ...Continue Reading

[TLELIST] Current TLEs

November 27th 2023 PDT

HST 1 20580U 90037B 23330.94633067 .00007663 00000-0 38975-3 0 9990 2 20580 28.4695 263.7699 0002636 345.1717 76.5246 15.14984271646152 ISS (ZARYA) 1 25544U 98067A 23331.27976751 .00011842 00000-0 21649-3 0 9997 2 25544 51.6430 240.7391 0001085 183.4325 320.4634 15.49820584427086 CXO 1 25867U 99040B 23331.89508405 .00000465 00000-0 00000-0 0 9996 2 25867 37.7596 175.9185 9034086 279.4962 359.7949 0.37810293 13803 ...Continue Reading

[TLELIST] Current TLEs

November 27th 2023 PDT

HST 1 20580U 90037B 23330.94633067 .00007663 00000-0 38975-3 0 9990 2 20580 28.4695 263.7699 0002636 345.1717 76.5246 15.14984271646152 ISS (ZARYA) 1 25544U 98067A 23331.27976751 .00011842 00000-0 21649-3 0 9997 2 25544 51.6430 240.7391 0001085 183.4325 320.4634 15.49820584427086 CXO 1 25867U 99040B 23331.89508405 .00000465 00000-0 00000-0 0 9996 2 25867 37.7596 175.9185 9034086 279.4962 359.7949 0.37810293 13803 ...Continue Reading

[TLELIST] Current TLEs

November 27th 2023 PDT

HST 1 20580U 90037B 23330.94633067 .00007663 00000-0 38975-3 0 9990 2 20580 28.4695 263.7699 0002636 345.1717 76.5246 15.14984271646152 ISS (ZARYA) 1 25544U 98067A 23331.27976751 .00011842 00000-0 21649-3 0 9997 2 25544 51.6430 240.7391 0001085 183.4325 320.4634 15.49820584427086 CXO 1 25867U 99040B 23331.89508405 .00000465 00000-0 00000-0 0 9996 2 25867 37.7596 175.9185 9034086 279.4962 359.7949 0.37810293 13803 ...Continue Reading

[TLELIST] Current TLEs

November 27th 2023 PDT

HST 1 20580U 90037B 23330.94633067 .00007663 00000-0 38975-3 0 9990 2 20580 28.4695 263.7699 0002636 345.1717 76.5246 15.14984271646152 ISS (ZARYA) 1 25544U 98067A 23331.27976751 .00011842 00000-0 21649-3 0 9997 2 25544 51.6430 240.7391 0001085 183.4325 320.4634 15.49820584427086 CXO 1 25867U 99040B 23331.89508405 .00000465 00000-0 00000-0 0 9996 2 25867 37.7596 175.9185 9034086 279.4962 359.7949 0.37810293 13803 ...Continue Reading
  • This mailing list is a public mailing list - anyone may join or leave, at any time.
  • This mailing list is announce-only.

International Space Station (ISS) / Hubble Space Telescope (HST) / Chandra X-Ray Observatory Orbital Data via EMAIL

Privacy Policy:

Private list